Theta_e
327 327 327 327 326 325 325 325 327 326 327 327 327 327 327 326 327 327 325 324 324 323
321 325 325 326 327 327 328 328 329 330 328 328 327 326 326 326 326 327 327 326 324 323
305 306 308 314 323 325 325 326 326 326 327 328 328 328 327 326 328 326 325 324 324 324
306 309 311 311 309 309 313 323 324 324 324 325 325 327 325 324 325 324 324 323 323 323
307 308 309 311 314 316 317 317 314 318 324 324 325 325 323 322 322 321 321 322 322 322
305 305 306 307 309 311 313 314 316 319 318 318 322 323 322 322 321 320 320 320 319 318
301 303 304 305 305 306 308 310 309 310 310 312 315 316 318 315 315 315 313 312 312 313
297 299 300 302 303 304 304 305 307 307 306 305 303 300 305 309 310 309 309 308 305 305
294 295 296 297 298 300 301 302 303 303 303 301 298 292 296 301 305 304 303 303 301 299
292 292 293 294 295 296 297 298 298 298 298 297 297 294 294 293 302 304 305 304 301 299
290 291 292 292 292 293 294 295 295 295 295 295 293 293 293 292 300 299 297 297 298 298
289 289 290 290 291 291 292 293 292 292 293 293 293 292 292 293 296 294 293 293 293 294
287 289 289 290 289 289 290 289 290 289 290 287 291 292 292 292 292 293 291 291 291 288
284 285 286 287 288 288 289 289 289 288 288 288 288 290 290 290 290 290 290 289 288 289
Wind_Speed
9 5 7 8 7 6 7 7 8 8 10 11 12 11 10 8 10 12 11 14 12 9
6 7 7 8 8 7 9 7 11 12 12 14 12 12 10 8 11 11 12 14 13 11
5 5 6 7 7 8 8 8 9 11 13 13 12 11 10 9 12 11 9 10 14 14
6 6 5 5 6 5 7 8 8 10 11 12 13 13 11 11 12 13 12 11 11 13
9 8 7 7 8 8 8 9 11 9 9 10 11 10 9 9 9 11 12 12 13 14
8 8 9 8 8 7 7 7 9 10 11 11 9 11 9 8 9 10 11 11 9 9
10 9 8 8 8 8 7 7 6 6 7 8 9 9 9 7 7 6 4 5 5 5
11 9 8 7 7 7 6 6 6 6 5 7 7 6 7 5 3 3 3 3 5 7
11 11 11 10 10 8 7 7 7 7 7 7 4 10 10 7 4 3 3 2 3 4
11 10 11 10 10 9 9 7 7 6 6 7 8 13 12 11 4 4 4 3 2 1
11 11 10 9 10 10 9 9 7 7 7 6 7 13 12 10 6 5 6 6 5 4
10 10 10 11 10 8 8 8 9 7 8 7 8 12 12 7 4 4 6 6 8 6
9 8 9 9 9 7 7 5 4 6 9 9 10 15 14 10 3 5 4 4 6 11
8 7 8 7 6 7 6 5 6 5 6 8 10 12 19 20 8 5 3 3 3 3
Wind_Direction
246 243 244 241 238 237 237 243 239 218 222 223 226 231 228 230 235 237 234 234 231 234
326 282 264 259 259 257 261 262 264 257 247 244 243 237 237 235 239 235 238 239 232 229
332 325 323 324 292 260 256 258 253 257 261 260 256 252 244 245 248 245 243 247 246 242
355 336 332 312 300 290 311 295 260 250 249 251 250 252 249 246 247 248 240 239 241 244
3 3 353 343 335 337 320 299 283 277 270 261 258 252 249 248 250 251 253 256 245 241
14 6 357 352 339 333 328 325 322 308 284 272 272 272 265 257 252 251 253 256 252 251
4 2 359 355 351 348 338 329 338 341 340 330 305 285 274 254 258 251 235 234 239 238
352 352 355 3 0 2 2 357 350 345 0 11 7 354 335 310 275 236 253 18 21 14
355 353 353 353 353 0 10 12 14 15 12 13 1 347 11 2 0 35 51 49 44 46
356 357 353 348 351 356 357 1 18 21 20 24 14 4 11 9 14 26 32 35 60 116
1 0 357 2 2 357 350 354 355 3 10 21 17 8 9 9 14 33 35 25 7 359
359 358 2 7 1 2 359 358 356 350 360 7 18 10 11 6 13 38 35 26 30 17
356 360 3 3 3 356 357 350 360 7 13 4 13 12 9 6 18 40 29 38 32 31
359 1 5 359 9 2 4 18 19 20 26 31 24 28 28 25 18 5 11 37 28 21